User: anonymous   Login
Location: Silverdale
(47.6506°N, 122.6941°W)
Time: 15:18:51
(UTC+00:00)
Language:

S-56A Canister/Altair - Orbit

View from above orbital plane
View from above orbital plane
View from above satellite
View from above satellite

Ground track
Ground track

The orbit data is extracted from the following two-line orbital elements,

1 00082U 61004B   22268.55277541  .00000000  00000-0  44909-4 0  9997
2 00082  38.8565   4.8305 1169811 129.5609 241.4438 12.26023929909691
Epoch (UTC): 25 September 2022 13:15:59
Eccentricity: 0.1169811
inclination: 38.8565°
perigee height: 637 km
apogee height: 2496 km
right ascension of ascending node: 4.8305°
argument of perigee: 129.5609°
revolutions per day: 12.26023929
mean anomaly at epoch: 241.4438°
orbit number at epoch: 90969

The dashed part of the orbit path shows where the satellite is in the earth's shadow,  

DLR